STARLINK-2040, 47656

Orbit data source: Space-Track

STARLINK-2040, 47656 is a payload satellite owned by SpaceX/Seattle (US) in LEO that was launched on Tue, 16 Feb 2021 UTC via an FALCON 9 launch vehicle from the Air Force Eastern Test Range (AFETR). Payload-class satellites include a variety of spacecraft equipped with specific instruments for various scientific and technological missions. These include communications satellites like Starlink; space stations such as the ISS; scientific satellites like the Hubble; Earth observation satellites from companies like Planet Labs, Umbra, and HawkEye 360; GPS; miniature CubeSats for education and research; and military/defense satellites.

Loading next visibility...
Identifier
47656, 2021-012AN
Orbit
LEO
Country
Flag of USUS
Related business
Manufacturer
SpaceX/Seattle
Mission
Operational Commercial Communications
Bus & Motor
STARLINK, Unknown motor
Mass
260 kg wet, ~248 kg dry
Launch date (UTC)
2021-02-16 (5 years ago)
Launch vehicle
FALCON 9
Launch site
Air Force Eastern Test Range (AFETR)
Object type
Payload
Rocket body
Debris
Shape & HBR
Box + 1 Pan, 10.1 m
Radar Cross Section
13.562 m², Large (>1 m²)

Expand to show TLE details & history
Last TLE update: 2 days ago

TLE from 2 days ago
0 STARLINK-2040
1 47656U 21012AN  26171.35422111  .00002912  00000-0  10553-3 0  9991
2 47656  53.1592 291.9053 0000996  89.7136 270.3980 15.31708256296028
Epoch: 2026-06-20T08:30Z
TLE epoch observation values (Epoch: 2026-06-20T08:30:04.703Z)
Latitude
-0.00001°
Longitude
-104.18435°
Altitude
471.611 km
Speed
7.631 km/s
True Right ascension
19h 27m 37s
True Declination
0° 00' 00"
Sunlit
Object was in full shadow at epoch
Visualization orbit readout
Latitude
Unknown
Longitude
Unknown
Altitude
Unknown
Speed
Unknown
Apparent Right ascension
Unknown
Apparent Declination
Unknown
Sunlit
N/A
Visualization observer readout
Local Sidereal Time
23:18:45
Azimuth
Unknown
Elevation
Unknown
Doppler factor
Unknown
Orbital elements
Apogee altitude
471.654 km
Perigee altitude
470.29 km
Semi-major axis
6,849.109 km
Eccentricity
0.0001
Inclination
53.1592°
RAAN
291.9053°
Arg. of periapsis
89.7136°
True anomaly
270.38659°
Mean anomaly
270.398°
Eccentric anomaly
270.39229°
Mean motion
3.82906 °/min
Orbital period
94.02 mins
BSTAR
0.00010553
Loading maneuver chart data...
Computing Atmospheric mass density...

Documentation

Showing up to 5 results
|